Weather in Habarana

Sri Lanka     8°02′26″N   80°45′22″E
temp.,
°C
wind,
m/s
gust,
m/s
humid.,
%
clouds,
%
prec.,
mm/h
press.,
hPa
HPBL,
m
24 january, mon
mon2423:30+20ese1179100 0.0 101211
02:30+19se118879 0.0 101012
05:30+18se1189100 0.0 100915
08:30+23se1273100 0.0 1012217
11:30+29ese2337100 0.0 1011983
14:30+31ene323165 0.0 10072046
17:30+26e3655100 0.0 1008158
20:30+20ene008182 0.0 101111
25 january, tue
tue2523:30+19ese118861 0.0 101111
02:30+18se119277 0.0 101011
05:30+18se2294100 0.0 101017
08:30+23ese257212 0.0 1012358
11:30+29ese444346 0.0 10111199
14:30+30e333937 0.0 10071714
17:30+26e485756 0.0 1008379
20:30+20ese118328 0.0 101111
26 january, wed
wed2623:30+19se118979 0.0 101213
02:30+18se119251 0.0 100911
05:30+18ese119243 0.0 101012
08:30+23ese2372100 0.0 1012315
11:30+28e3451100 0.0 10111201
14:30+29e4448100 0.0 10081730
17:30+24e366893 0.0 1008238
20:30+20e238784 0.0 101157
27 january, thu
thu2723:30+19ese229313 0.0 101122
02:30+18ese119498 0.0 100919
05:30+18ese229691 0.0 101027
08:30+23e377586 0.0 1012473
11:30+28e4652100 0.0 10111290
14:30+29ne4641100 0.0 10081885
17:30+25ene4763100 0.0 1009429
20:30+21e2287100 0.0 101123
28 january, fri
fri2823:30+20e229163 0.0 101125
02:30+19ese119399 0.0 101011
05:30+19e129170 0.0 101023
08:30+24e376884 0.0 1012682
11:30+28e5653100 0.0 10111746
14:30+26ene5665100 0.1 10081093
17:30+25ene487330 0.4 1009789
20:30+21e268951 0.0 1012153